New Philadelphia, OH

8:33 AM EDT on March 25, 2017 (GMT -0400)
Clever

Weather History for KPHD - March, 2013

Change the Weather History Date:

Monday, March 18, 2013

  Actual Average Record
Temperature  
Mean Temperature 40 °F 41 °F  
Max Temperature 49 °F 52 °F 75 °F (2012)
Min Temperature 31 °F 29 °F 9 °F (1993)
Degree Days  
Heating Degree Days 25 24  
Month to date heating degree days 511 495  
Since 1 July heating degree days 4641 4702  
Cooling Degree Days 0 0  
Month to date cooling degree days 0 0  
Year to date cooling degree days 0 0  
Moisture  
Dew Point 35 °F    
Average Humidity 77    
Maximum Humidity 92    
Minimum Humidity 61    
Precipitation  
Precipitation 0.58 in 0.10 in 0.85 in (1977)
Month to date precipitation 1.28 1.69  
Year to date precipitation 4.44 6.65  
Sea Level Pressure  
Sea Level Pressure 29.81 in    
Wind  
Wind Speed 9 mph (SE)    
Max Wind Speed 18 mph    
Max Gust Speed 26 mph    
Visibility 6 miles    
Events Rain    
T = Trace of Precipitation, MM = Missing Value Source: NWS Daily Summary

Daily Weather History Graph

Daily Weather History Graph

Search for Another Location

Airport or City:

Trip Planner

Search our weather history database for the weather conditions in past years. The results will help you decide how hot, cold, wet, or windy it might be!

Date:

Astronomy

Mar. 18, 2013 Rise Set
Actual Time 7:31 AM EDT 7:35 PM EDT
Civil Twilight 7:04 AM EDT 8:03 PM EDT
Nautical Twilight 6:33 AM EDT 8:34 PM EDT
Astronomical Twilight 6:00 AM EDT 9:07 PM EDT
Moon 11:29 AM EDT (3/18) 1:35 AM EDT (3/18)
Length of Visible Light 12h 58m
Length of Day
12h 03m
Waxing Crescent, 40% of the Moon is Illuminated
Mar 18
Waxing Crescent
Mar 19
First Quarter
Mar 27
Full
Apr 3
Last Quarter
Apr 10
New

Hourly Weather History & Observations

Time (EDT) Temp. Windchill Dew Point Humidity Pressure Visibility Wind Dir Wind Speed Gust Speed Precip Events Conditions
12:53 AM 30.9 °F 26.2 °F 21.0 °F 67% 30.14 in 10.0 mi East 4.6 mph - N/A   Clear
1:53 AM 32.0 °F 23.0 °F 21.0 °F 64% 30.11 in 10.0 mi East 11.5 mph - N/A   Overcast
2:53 AM 32.0 °F 24.8 °F 21.0 °F 64% 30.10 in 10.0 mi East 8.1 mph - N/A   Overcast
3:53 AM 33.1 °F 26.1 °F 21.9 °F 64% 30.08 in 10.0 mi East 8.1 mph - N/A   Overcast
4:31 AM 32.0 °F 26.4 °F 24.8 °F 75% 30.02 in 10.0 mi East 5.8 mph - 0.01 in Rain Light Rain
4:51 AM 32.0 °F 24.8 °F 26.6 °F 80% 30.01 in 10.0 mi ESE 8.1 mph - 0.01 in Rain Light Freezing Rain
4:53 AM 32.0 °F 24.2 °F 26.1 °F 79% 30.04 in 10.0 mi ESE 9.2 mph - 0.01 in Rain Light Freezing Rain
5:53 AM 33.1 °F 25.5 °F 28.0 °F 82% 30.01 in 7.0 mi ESE 9.2 mph - 0.04 in Rain Light Freezing Rain
6:44 AM 33.8 °F 25.3 °F 30.2 °F 87% 29.95 in 6.0 mi ESE 11.5 mph - 0.02 in Rain Light Rain
6:53 AM 34.0 °F 26.0 °F 30.0 °F 85% 29.95 in 6.0 mi ESE 10.4 mph - 0.03 in Rain Light Rain
7:53 AM 35.1 °F 28.6 °F 30.9 °F 85% 29.94 in 5.0 mi ESE 8.1 mph - 0.04 in Rain Light Rain
8:53 AM 35.1 °F 25.5 °F 33.1 °F 92% 29.91 in 3.0 mi ESE 15.0 mph 20.7 mph 0.09 in Rain Rain
9:53 AM 35.1 °F 26.4 °F 33.1 °F 92% 29.88 in 3.0 mi ESE 12.7 mph - 0.15 in Rain Rain
10:53 AM 36.0 °F 27.1 °F 33.1 °F 89% 29.84 in 6.0 mi ESE 13.8 mph - 0.14 in Rain Light Rain
11:04 AM 35.6 °F 26.2 °F 33.8 °F 93% 29.82 in 10.0 mi ESE 15.0 mph 23.0 mph 0.00 in Rain Light Rain
11:30 AM 35.6 °F 27.5 °F 33.8 °F 93% 29.83 in 9.0 mi SE 11.5 mph - 0.00 in   Overcast
11:50 AM 35.6 °F 28.0 °F 33.8 °F 93% 29.82 in 2.0 mi SE 10.4 mph 20.7 mph 0.00 in Rain Light Rain
11:53 AM 36.0 °F 29.6 °F 34.0 °F 93% 29.84 in 2.0 mi SE 8.1 mph 20.7 mph 0.00 in Rain Light Rain
12:04 PM 35.6 °F 28.6 °F 33.8 °F 93% 29.81 in 4.0 mi SE 9.2 mph - 0.00 in Rain Light Rain
12:26 PM 35.6 °F 27.5 °F 33.8 °F 93% 29.81 in 6.0 mi SE 11.5 mph - 0.00 in Rain Light Rain
12:53 PM 37.0 °F 28.5 °F 35.1 °F 93% 29.82 in 3.0 mi SE 13.8 mph - 0.00 in   Overcast
1:32 PM 37.4 °F 30.8 °F 35.6 °F 93% 29.77 in 2.0 mi SE 9.2 mph 19.6 mph 0.00 in Rain Light Rain
1:53 PM 37.9 °F 30.9 °F 36.0 °F 93% 29.78 in 2.5 mi SE 10.4 mph - 0.01 in   Overcast
2:05 PM 37.4 °F 30.8 °F 35.6 °F 93% 29.76 in 3.0 mi SE 9.2 mph - N/A   Overcast
2:53 PM 39.0 °F 32.8 °F 37.0 °F 93% 29.75 in 10.0 mi SE 9.2 mph - 0.00 in   Overcast
3:18 PM 39.2 °F 33.6 °F 37.4 °F 93% 29.71 in 2.5 mi SE 8.1 mph - N/A   Overcast
3:43 PM 39.2 °F 32.5 °F 37.4 °F 93% 29.68 in 1.2 mi SE 10.4 mph - 0.00 in Rain Light Rain
3:53 PM 41.0 °F 35.2 °F 39.0 °F 93% 29.69 in 3.0 mi SE 9.2 mph - 0.01 in Rain Light Rain
4:28 PM 42.8 °F 39.3 °F 39.2 °F 87% 29.67 in 10.0 mi SSE 5.8 mph - 0.00 in   Overcast
4:44 PM 42.8 °F 38.0 °F 41.0 °F 93% 29.66 in 2.5 mi SE 8.1 mph - 0.00 in Rain Light Rain
4:51 PM 44.6 °F 39.2 °F 41.0 °F 87% 29.66 in 6.0 mi SE 10.4 mph - 0.00 in   Overcast
4:53 PM 44.1 °F 39.0 °F 41.0 °F 89% 29.68 in 7.0 mi SE 9.2 mph - 0.00 in   Overcast
5:53 PM 45.0 °F 40.1 °F 42.1 °F 90% 29.67 in 6.0 mi SSE 9.2 mph 16.1 mph 0.01 in Rain Light Rain
6:53 PM 46.0 °F 41.9 °F 43.0 °F 89% 29.65 in 10.0 mi SSE 8.1 mph - 0.00 in   Overcast
7:08 PM 46.4 °F 42.9 °F 42.8 °F 87% 29.64 in 10.0 mi South 6.9 mph - N/A   Overcast
7:53 PM 46.9 °F - 43.0 °F 86% 29.65 in 9.0 mi SSE 8.1 mph - N/A   Overcast
8:48 PM 48.2 °F - 44.6 °F 87% 29.65 in 8.0 mi SSW 8.1 mph - 0.00 in Rain Light Rain
8:53 PM 48.0 °F - 44.1 °F 86% 29.67 in 6.0 mi South 4.6 mph - 0.01 in Rain Light Rain
9:48 PM 48.2 °F - 44.6 °F 87% 29.66 in 3.0 mi WSW 3.5 mph - 0.03 in Rain Light Rain
9:53 PM 48.0 °F - 45.0 °F 89% 29.68 in 3.0 mi Calm Calm - 0.03 in Rain Light Rain
10:22 PM 48.2 °F - 44.6 °F 87% 29.66 in 10.0 mi SW 5.8 mph - 0.01 in   Overcast
10:53 PM 48.9 °F - 45.0 °F 86% 29.68 in 10.0 mi WSW 6.9 mph - 0.01 in   Overcast
11:53 PM 46.9 °F - 42.1 °F 83% 29.72 in 9.0 mi West 12.7 mph 19.6 mph N/A   Overcast